Temp
77 76 75 75 76 76 76 76 76 76 75 75 75 74 74 73 83 77 77 78 77 76 76 77 76 76 75 75 75 75 76 76 75
77 75 75 75 75 76 76 76 75 75 75 75 74 73 73 79 80 76 77 77 76 77 76 75 75 75 75 75 75 75 74 75 74
76 75 75 75 75 75 75 75 75 75 75 74 73 72 72 80 82 79 77 75 76 76 75 75 74 74 74 74 73 73 73 74 74
75 75 75 75 75 75 75 75 75 74 74 73 72 71 72 79 82 82 77 74 76 75 75 74 73 73 73 73 72 72 72 72 72
74 73 74 74 75 74 74 74 74 74 73 71 70 70 71 82 81 79 76 75 75 75 73 73 73 72 72 71 71 71 71 71 71
75 73 72 73 74 74 74 73 73 71 71 70 69 69 81 82 81 79 73 74 75 74 73 72 72 71 71 71 70 70 70 70 69
81 73 71 73 73 73 73 72 71 70 78 74 69 77 81 81 80 76 73 74 74 73 72 71 71 70 70 70 70 70 69 69 69
81 78 76 77 71 77 74 73 76 79 81 79 80 80 80 81 79 72 72 73 73 72 71 70 70 70 69 69 69 68 68 68 68
80 81 79 79 79 77 79 79 80 79 80 80 80 79 79 79 79 71 70 72 72 72 71 70 70 69 69 68 68 67 67 67 67
82 82 81 81 82 81 81 81 80 79 79 80 79 78 78 79 78 76 68 70 71 71 71 70 70 69 68 68 67 66 66 66 66
81 81 81 81 82 82 82 80 79 78 79 78 78 78 78 78 77 77 71 68 69 70 70 70 70 69 68 68 66 66 65 65 65
81 81 81 81 81 81 81 80 80 78 78 77 77 77 77 76 76 76 73 69 66 68 70 69 69 69 68 68 67 66 65 65 64
81 80 80 82 81 80 79 78 76 76 75 75 75 75 75 75 76 74 74 71 70 67 68 68 68 68 68 67 66 65 64 64 64
81 80 80 82 80 75 78 77 75 73 73 73 74 73 72 73 74 73 72 71 70 68 65 65 66 66 66 67 66 65 64 63 63
80 80 80 81 79 76 73 75 75 74 73 73 71 71 71 71 71 71 72 70 67 68 64 62 62 63 64 65 64 64 63 63 63
80 79 79 79 78 77 73 74 72 70 73 68 67 67 68 69 69 70 69 67 66 66 65 64 64 61 61 61 61 61 62 62 62
79 78 77 78 76 76 73 73 70 70 71 65 64 59 62 64 66 67 66 66 65 64 65 65 64 62 59 58 58 58 59 60 61
77 77 76 75 76 74 74 72 70 66 67 68 67 59 58 59 62 63 64 65 63 63 63 63 62 60 60 56 55 56 57 58 59
70 72 73 72 72 73 73 73 68 67 63 63 67 68 64 57 51 58 60 62 62 62 60 61 59 58 57 56 55 55 55 56 58
71 70 69 69 69 68 71 71 70 66 65 60 60 62 59 60 58 51 51 57 58 59 59 58 59 58 56 54 53 53 54 55 55
MSLP
1016.98 1017.14 1017.28 1017.42 1017.59 1017.89 1018.16 1018.39 1018.59 1018.75 1018.86 1018.90 1019.05 1019.15 1019.07 1018.86 1018.14 1018.56 1018.85 1018.71 1018.92 1019.09 1018.84 1019.11 1019.29 1019.34 1019.34 1019.27 1019.42 1019.20 1019.29 1019.47 1019.52
1017.29 1017.50 1017.66 1017.82 1017.96 1018.22 1018.46 1018.61 1018.81 1018.97 1019.07 1019.17 1019.27 1019.35 1019.13 1018.66 1018.46 1018.99 1019.05 1019.34 1019.40 1019.47 1019.51 1019.59 1019.69 1019.82 1019.93 1019.90 1019.75 1019.62 1019.73 1019.75 1019.79
1017.53 1017.81 1017.99 1018.13 1018.33 1018.48 1018.67 1018.83 1018.97 1019.14 1019.24 1019.37 1019.47 1019.44 1019.14 1018.47 1018.49 1018.91 1019.39 1019.76 1019.75 1019.97 1020.09 1020.07 1020.24 1020.34 1020.32 1020.45 1020.41 1020.43 1020.42 1020.34 1020.29
1017.78 1018.01 1018.21 1018.40 1018.57 1018.71 1018.85 1019.00 1019.15 1019.31 1019.46 1019.58 1019.63 1019.58 1019.31 1018.88 1018.76 1018.79 1019.52 1020.03 1020.02 1020.28 1020.46 1020.59 1020.72 1020.78 1020.73 1020.87 1020.97 1020.98 1021.10 1021.05 1020.95
1018.03 1018.21 1018.32 1018.48 1018.67 1018.88 1019.05 1019.23 1019.42 1019.55 1019.70 1019.79 1019.79 1019.73 1019.38 1018.83 1019.16 1019.33 1020.10 1020.32 1020.42 1020.53 1020.92 1021.04 1021.12 1021.17 1021.28 1021.42 1021.44 1021.36 1021.57 1021.63 1021.47
1018.00 1017.99 1018.31 1018.54 1018.72 1018.94 1019.12 1019.38 1019.67 1019.82 1019.92 1020.03 1019.92 1019.82 1019.00 1018.95 1019.04 1019.47 1020.35 1020.56 1020.69 1020.94 1021.18 1021.45 1021.58 1021.58 1021.67 1021.76 1021.83 1021.80 1021.82 1021.95 1021.99
1017.30 1018.00 1018.37 1018.50 1018.64 1018.85 1019.14 1019.43 1019.73 1019.82 1019.52 1019.96 1020.07 1019.49 1019.09 1019.06 1019.26 1020.05 1020.59 1020.81 1021.03 1021.28 1021.53 1021.78 1021.96 1021.99 1022.02 1022.05 1022.17 1022.09 1022.10 1022.18 1022.36
1017.39 1017.79 1018.26 1018.28 1018.64 1018.67 1019.11 1019.48 1019.39 1019.02 1018.81 1019.18 1019.13 1019.08 1019.29 1019.22 1019.52 1020.43 1020.71 1020.95 1021.20 1021.46 1021.70 1021.95 1022.20 1022.29 1022.33 1022.34 1022.54 1022.54 1022.56 1022.56 1022.58
1017.13 1017.18 1017.63 1017.72 1017.97 1018.23 1018.22 1018.37 1018.57 1018.81 1018.97 1018.92 1018.96 1019.27 1019.37 1019.42 1019.64 1020.37 1020.79 1020.99 1021.22 1021.45 1021.76 1021.93 1022.23 1022.33 1022.50 1022.64 1022.73 1022.87 1022.94 1022.88 1022.96
1016.44 1016.70 1017.03 1017.17 1017.09 1017.41 1017.31 1017.62 1018.09 1018.59 1018.74 1018.86 1018.93 1019.20 1019.31 1019.47 1019.70 1019.95 1020.86 1021.14 1021.29 1021.52 1021.73 1021.98 1022.18 1022.34 1022.58 1022.72 1022.86 1023.02 1023.16 1023.19 1023.23
1016.08 1016.31 1016.66 1016.89 1016.97 1016.94 1017.12 1017.34 1017.78 1018.21 1018.53 1018.78 1018.95 1019.10 1019.18 1019.37 1019.61 1019.73 1020.82 1021.28 1021.38 1021.64 1021.78 1022.01 1022.16 1022.48 1022.62 1022.84 1023.04 1023.17 1023.24 1023.36 1023.49
1015.52 1015.79 1016.04 1016.41 1016.74 1016.93 1017.06 1017.21 1017.41 1017.90 1018.26 1018.65 1018.90 1019.13 1019.18 1019.41 1019.60 1019.80 1020.25 1021.23 1021.57 1021.68 1021.87 1022.05 1022.20 1022.41 1022.70 1022.89 1023.11 1023.29 1023.37 1023.39 1023.49
1014.99 1015.29 1015.55 1015.62 1016.06 1016.54 1016.84 1017.20 1017.49 1017.88 1018.15 1018.41 1018.67 1019.01 1019.19 1019.33 1019.37 1019.66 1019.82 1020.56 1021.05 1021.78 1021.86 1022.04 1022.19 1022.35 1022.60 1022.82 1023.19 1023.36 1023.50 1023.51 1023.52
1014.84 1014.91 1015.08 1015.23 1015.47 1016.16 1016.62 1016.89 1017.26 1017.64 1017.86 1018.19 1018.36 1018.75 1019.11 1019.29 1019.38 1019.58 1019.83 1020.08 1020.46 1021.12 1021.74 1022.10 1022.23 1022.43 1022.62 1022.83 1023.10 1023.34 1023.45 1023.61 1023.64
1014.13 1014.50 1014.65 1014.79 1015.12 1015.58 1016.25 1016.55 1016.88 1017.14 1017.41 1017.95 1018.26 1018.61 1018.88 1019.09 1019.22 1019.45 1019.62 1019.89 1020.39 1020.58 1021.26 1021.95 1022.15 1022.37 1022.52 1022.79 1023.19 1023.40 1023.42 1023.55 1023.64
1013.50 1013.84 1014.13 1014.31 1014.56 1014.87 1015.69 1016.11 1016.44 1016.97 1017.14 1017.83 1018.27 1018.58 1018.73 1018.95 1019.11 1019.13 1019.33 1019.73 1020.16 1020.42 1020.75 1021.30 1021.55 1022.26 1022.58 1022.69 1023.03 1023.33 1023.45 1023.45 1023.54
1012.77 1013.26 1013.48 1013.64 1014.03 1014.45 1015.00 1015.53 1015.88 1016.37 1016.76 1017.18 1017.82 1018.21 1018.74 1018.71 1018.74 1018.91 1019.11 1019.35 1019.74 1020.04 1020.21 1020.59 1020.83 1021.32 1022.04 1022.48 1022.64 1023.09 1023.28 1023.35 1023.36
1012.40 1012.67 1013.12 1013.39 1013.41 1013.64 1013.95 1014.70 1015.07 1015.66 1016.30 1016.46 1016.31 1016.86 1016.99 1017.66 1018.16 1018.54 1018.84 1019.01 1019.34 1019.59 1019.95 1019.98 1020.37 1020.84 1021.42 1022.18 1022.64 1022.96 1023.10 1023.26 1023.27
1012.63 1012.50 1012.64 1013.00 1013.15 1013.25 1013.40 1013.72 1014.28 1015.08 1015.53 1016.33 1015.85 1015.55 1016.19 1016.76 1018.04 1018.51 1018.57 1018.80 1019.04 1019.28 1019.66 1019.91 1020.11 1020.58 1021.10 1021.64 1022.19 1022.85 1023.10 1023.11 1023.22
1011.79 1012.21 1012.60 1012.66 1012.75 1012.86 1013.01 1013.16 1013.33 1013.99 1014.66 1015.17 1015.47 1015.99 1016.35 1016.46 1016.72 1017.74 1018.42 1018.81 1018.84 1019.00 1019.53 1020.09 1020.25 1020.60 1020.97 1021.55 1022.03 1022.71 1023.08 1023.11 1023.06
Wind_Speed
13 14 15 15 14 13 11 10 9 8 8 8 7 4 3 8 7 7 9 8 9 12 13 12 10 12 13 6 6 4 3 5 4
10 12 13 12 12 10 9 9 8 7 7 6 5 2 5 7 7 4 9 10 15 16 16 16 16 15 15 16 18 20 16 10 12
8 10 10 10 9 8 8 8 8 6 5 5 4 1 6 2 4 10 8 9 14 13 12 14 13 13 14 14 15 15 17 16 17
7 8 8 7 7 7 7 8 7 5 5 5 4 1 7 7 5 8 7 8 12 13 10 11 11 12 13 13 13 14 13 14 14
6 6 7 7 6 7 7 7 5 4 5 5 4 3 8 3 3 8 7 9 9 11 10 10 10 11 12 11 12 13 13 14 14
8 5 10 7 8 8 8 9 6 6 5 4 3 5 4 3 2 7 9 8 8 9 10 9 9 10 10 10 11 11 12 12 12
7 9 8 8 10 8 10 9 7 8 6 5 5 6 2 1 1 7 9 8 8 8 9 9 8 9 9 10 10 11 11 11 11
6 6 6 6 7 7 8 6 6 9 4 7 6 1 1 2 2 8 7 8 8 8 8 8 7 8 8 9 9 10 10 9 9
7 6 8 8 8 9 9 7 8 6 6 6 5 4 3 2 1 8 9 9 9 9 8 8 7 7 7 7 8 9 9 9 9
8 7 7 8 8 9 8 6 6 7 7 5 5 5 5 4 3 5 10 9 9 9 9 7 7 7 7 7 7 7 8 8 7
8 8 8 8 7 8 7 7 7 7 6 6 6 6 5 5 4 4 7 9 9 9 9 7 7 6 6 6 6 6 6 7 6
10 8 8 8 8 10 8 8 7 6 6 7 6 5 6 5 6 4 8 7 6 8 8 8 7 6 5 5 5 5 4 4 4
11 8 8 9 8 8 8 7 6 6 6 7 6 5 5 7 7 5 4 7 7 4 8 9 8 7 6 5 5 4 3 3 2
11 9 9 11 8 6 8 8 8 7 7 7 6 6 5 6 6 7 7 6 5 6 8 6 7 7 7 6 5 3 2 1 2
12 9 11 11 8 8 8 10 8 7 7 7 5 5 5 5 6 7 7 6 6 5 9 5 5 7 8 6 5 3 2 1 3
13 10 11 11 11 11 11 11 11 8 7 6 5 4 6 7 6 6 6 7 8 7 7 7 6 5 8 7 5 4 3 4 5
12 13 12 13 10 13 13 14 9 8 9 7 6 5 5 7 8 7 7 9 7 8 9 9 7 6 7 8 8 5 4 3 4
12 13 12 12 11 10 13 13 15 10 9 12 6 4 6 6 6 9 7 9 7 7 8 9 7 5 4 8 6 6 5 2 3
13 11 13 12 9 12 12 11 12 10 11 8 10 4 1 4 3 3 7 6 9 9 5 7 5 5 4 6 6 9 5 3 3
12 13 11 10 10 12 13 13 15 12 9 10 4 7 3 3 2 4 4 6 4 4 6 5 6 7 5 5 7 7 5 3 3
Wind_Direction
96 93 96 94 98 104 105 109 117 115 106 95 90 99 236 273 70 39 74 53 97 62 81 101 78 66 59 62 39 344 191 76 61
108 103 102 103 103 106 112 116 120 116 107 94 77 66 273 285 89 102 73 72 75 65 67 71 65 58 55 53 51 58 64 70 61
113 111 106 105 110 114 117 121 123 119 110 99 88 83 269 223 85 90 83 79 76 67 67 65 62 61 64 60 58 57 56 58 60
128 122 117 117 118 121 127 128 124 123 116 108 122 245 286 280 72 88 95 82 91 87 77 72 72 71 70 69 66 62 61 61 63
127 127 137 137 138 141 144 131 125 114 118 117 137 212 269 82 133 93 90 84 94 95 83 79 76 77 74 73 71 69 62 61 62
156 129 139 162 159 170 159 130 129 122 113 130 180 231 242 151 102 96 103 99 96 96 93 86 80 80 79 77 74 71 69 64 61
190 138 161 193 178 175 144 146 161 198 160 170 219 238 158 156 137 96 112 109 104 104 101 94 88 87 84 82 77 73 71 68 61
186 159 180 192 177 183 166 171 202 213 206 164 202 142 238 176 135 107 133 127 121 117 114 106 98 92 86 82 74 71 67 65 66
201 191 192 197 178 222 189 185 206 195 205 199 206 184 203 225 157 125 149 142 135 132 132 125 116 106 96 88 84 74 65 62 61
203 206 199 207 193 207 198 202 195 202 205 203 211 197 194 204 162 127 144 146 144 147 144 144 140 129 118 107 97 85 71 63 60
210 207 211 215 222 217 211 203 208 205 202 203 214 206 200 201 190 150 148 147 154 160 159 161 156 149 134 121 112 95 82 71 55
209 216 209 209 216 226 218 216 206 209 197 201 206 209 209 206 188 197 146 159 164 171 174 174 167 166 156 141 128 118 95 80 66
211 208 221 213 210 210 223 217 208 214 199 207 194 201 206 205 200 184 182 163 175 176 185 180 181 170 173 170 151 138 104 59 25
221 218 215 221 216 190 225 212 209 210 204 213 194 197 197 211 204 192 193 186 184 175 149 176 189 173 184 173 168 168 137 48 355
214 223 221 217 213 197 213 218 206 218 200 211 201 196 209 208 200 208 197 193 199 188 156 164 158 176 187 185 191 199 214 264 304
216 214 224 218 217 209 200 219 208 213 206 180 199 213 212 212 218 213 196 193 191 195 180 179 186 174 190 181 182 207 242 265 281
221 217 222 217 215 221 196 218 206 205 202 187 175 196 200 223 214 206 209 201 191 202 194 196 198 172 176 180 167 190 219 249 267
229 228 224 232 219 217 213 206 208 203 197 205 176 201 225 151 190 208 209 211 196 197 203 197 187 184 172 149 156 187 170 218 264
243 246 232 227 224 228 222 206 214 199 201 200 232 265 30 185 169 234 216 222 216 201 193 196 167 167 181 138 124 161 169 207 274
218 228 246 237 228 230 227 221 208 206 211 206 180 228 199 262 230 172 191 225 231 205 193 195 190 187 175 149 150 164 188 215 271